When you browse on this site, cookies collect data to enhance your experience and personalize the content and advertising you see.
Visit our Privacy Policy to learn more. By continuing to use the site, you agree to this use of cookies and data.
  • In Lithuania
  • List of Countries
  • For 7 days
  • Water Temperature
  • Weather Map
  • Weather Widgets
  • user-avatar
    Login

    Hourly Weather Linz

    Today, 15 September, Sunday

    Time Temperature Precipitation Wind Pressure Humidity
    00:00 +14°C° 0 mm 1 mps 742 mmHg 92%
    01:00 +13°C° 0 mm 1 mps 742 mmHg 93%
    02:00 +13°C° 0 mm 1 mps 742 mmHg 93%
    03:00 +13°C° 0 mm 1 mps 742 mmHg 93%
    04:00 +13°C° 0 mm 1 mps 741 mmHg 94%
    05:00 +12°C° 0 mm 0 mps 741 mmHg 92%
    06:00 +13°C° 0 mm 0 mps 741 mmHg 90%
    07:00 +14°C° 0 mm 0 mps 741 mmHg 86%
    08:00 +18°C° 0 mm 1 mps 741 mmHg 81%
    09:00 +20°C° 0 mm 1 mps 740 mmHg 76%
    10:00 +22°C° 0 mm 1 mps 740 mmHg 70%
    11:00 +23°C° 0 mm 1 mps 740 mmHg 67%
    12:00 +24°C° 0 mm 1 mps 740 mmHg 64%
    13:00 +26°C° 0 mm 1 mps 740 mmHg 59%
    14:00 +25°C° 0 mm 2 mps 739 mmHg 61%
    15:00 +25°C° 0 mm 2 mps 738 mmHg 62%
    16:00 +25°C° 0 mm 2 mps 738 mmHg 64%
    17:00 +23°C° 0 mm 2 mps 738 mmHg 72%
    18:00 +21°C° 0 mm 1 mps 738 mmHg 80%
    19:00 +19°C° 0 mm 1 mps 738 mmHg 88%
    20:00 +19°C° 0 mm 1 mps 738 mmHg 89%
    21:00 +18°C° 0 mm 1 mps 738 mmHg 90%
    22:00 +18°C° 0 mm 1 mps 738 mmHg 91%
    23:00 +18°C° 0 mm 1 mps 738 mmHg 91%

    Tomorrow, 16 September, Monday

    Time Temperature Precipitation Wind Pressure Humidity
    00:00 +16°C° 0 mm 1 mps 738 mmHg 92%
    01:00 +16°C° 0 mm 1 mps 738 mmHg 92%
    02:00 +15°C° 0 mm 0 mps 738 mmHg 92%
    03:00 +15°C° 0 mm 0 mps 737 mmHg 93%
    04:00 +14°C° 0 mm 0 mps 737 mmHg 93%
    05:00 +15°C° 0 mm 0 mps 737 mmHg 92%
    06:00 +16°C° 0 mm 0 mps 737 mmHg 91%
    07:00 +16°C° 0 mm 0 mps 737 mmHg 90%
    08:00 +20°C° 0 mm 1 mps 737 mmHg 84%
    09:00 +22°C° 0 mm 1 mps 736 mmHg 79%
    10:00 +24°C° 0 mm 1 mps 736 mmHg 73%
    11:00 +24°C° 0.2 mm 2 mps 736 mmHg 72%
    12:00 +25°C° 0.2 mm 2 mps 736 mmHg 70%
    13:00 +26°C° 0.2 mm 3 mps 735 mmHg 69%
    14:00 +25°C° 0.3 mm 3 mps 735 mmHg 72%
    15:00 +25°C° 0.3 mm 3 mps 735 mmHg 74%
    16:00 +24°C° 0.3 mm 3 mps 734 mmHg 76%
    17:00 +23°C° 0.2 mm 2 mps 734 mmHg 80%
    18:00 +20°C° 0.2 mm 2 mps 734 mmHg 85%
    19:00 +20°C° 0.2 mm 1 mps 734 mmHg 89%
    20:00 +19°C° 0.1 mm 1 mps 734 mmHg 89%
    21:00 +19°C° 0.1 mm 1 mps 734 mmHg 90%
    22:00 +18°C° 0.1 mm 1 mps 735 mmHg 91%
    23:00 +18°C° 0.1 mm 1 mps 734 mmHg 91%

    Day after tomorrow, 17 September, Tuesday

    Time Temperature Precipitation Wind Pressure Humidity
    00:00 +18°C° 0.1 mm 1 mps 734 mmHg 91%
    01:00 +18°C° 0.1 mm 1 mps 734 mmHg 92%
    02:00 +18°C° 0.1 mm 1 mps 734 mmHg 91%
    03:00 +18°C° 0.1 mm 1 mps 734 mmHg 91%
    04:00 +17°C° 0.1 mm 2 mps 734 mmHg 91%
    05:00 +17°C° 0 mm 2 mps 734 mmHg 90%
    06:00 +17°C° 0 mm 2 mps 734 mmHg 90%
    07:00 +17°C° 0 mm 2 mps 734 mmHg 90%
    08:00 +17°C° 0.2 mm 2 mps 734 mmHg 90%
    09:00 +17°C° 0.2 mm 3 mps 735 mmHg 90%
    10:00 +17°C° 0.2 mm 3 mps 735 mmHg 89%
    11:00 +17°C° 0.1 mm 4 mps 735 mmHg 88%
    12:00 +17°C° 0.1 mm 4 mps 734 mmHg 86%
    13:00 +17°C° 0.1 mm 4 mps 734 mmHg 85%
    14:00 +18°C° 0 mm 4 mps 734 mmHg 81%
    15:00 +18°C° 0 mm 4 mps 734 mmHg 78%
    16:00 +19°C° 0 mm 4 mps 734 mmHg 75%
    17:00 +17°C° 0 mm 4 mps 734 mmHg 80%
    18:00 +16°C° 0 mm 3 mps 734 mmHg 85%
    19:00 +15°C° 0 mm 2 mps 734 mmHg 90%
    20:00 +14°C° 0 mm 2 mps 735 mmHg 91%
    21:00 +14°C° 0 mm 2 mps 735 mmHg 91%
    22:00 +13°C° 0 mm 2 mps 735 mmHg 92%
    23:00 +12°C° 0 mm 2 mps 735 mmHg 92%

    18 September, Wednesday

    Time Temperature Precipitation Wind Pressure Humidity
    00:00 +10°C° 0 mm 2 mps 736 mmHg 92%
    01:00 +10°C° 0 mm 2 mps 736 mmHg 91%
    02:00 +9°C° 0 mm 2 mps 736 mmHg 92%
    03:00 +10°C° 0 mm 1 mps 736 mmHg 92%
    04:00 +9°C° 0 mm 1 mps 736 mmHg 92%
    05:00 +9°C° 0 mm 1 mps 736 mmHg 90%
    06:00 +10°C° 0 mm 1 mps 737 mmHg 88%
    07:00 +10°C° 0 mm 1 mps 737 mmHg 87%
    08:00 +11°C° 0 mm 1 mps 737 mmHg 79%
    09:00 +13°C° 0 mm 1 mps 737 mmHg 71%
    10:00 +15°C° 0 mm 1 mps 738 mmHg 63%
    11:00 +16°C° 0 mm 2 mps 737 mmHg 59%
    12:00 +16°C° 0 mm 2 mps 737 mmHg 56%
    13:00 +17°C° 0 mm 2 mps 737 mmHg 52%
    14:00 +17°C° 0 mm 3 mps 737 mmHg 52%
    15:00 +17°C° 0 mm 3 mps 737 mmHg 52%
    16:00 +16°C° 0 mm 3 mps 737 mmHg 53%
    17:00 +14°C° 0 mm 2 mps 737 mmHg 59%
    18:00 +12°C° 0 mm 2 mps 737 mmHg 65%
    19:00 +10°C° 0 mm 1 mps 738 mmHg 71%
    20:00 +10°C° 0 mm 1 mps 738 mmHg 73%
    21:00 +9°C° 0 mm 1 mps 738 mmHg 75%
    22:00 +7°C° 0 mm 0 mps 739 mmHg 77%
    23:00 +7°C° 0 mm 0 mps 739 mmHg 79%

    19 September, Thursday

    Time Temperature Precipitation Wind Pressure Humidity
    00:00 +6°C° 0 mm 0 mps 739 mmHg 80%
    01:00 +6°C° 0 mm 0 mps 739 mmHg 82%
    02:00 +6°C° 0 mm 0 mps 739 mmHg 83%
    03:00 +5°C° 0 mm 0 mps 739 mmHg 85%
    04:00 +5°C° 0 mm 0 mps 739 mmHg 86%
    05:00 +6°C° 0 mm 0 mps 739 mmHg 83%
    06:00 +6°C° 0 mm 0 mps 739 mmHg 81%
    07:00 +7°C° 0 mm 0 mps 739 mmHg 78%
    08:00 +9°C° 0 mm 0 mps 740 mmHg 71%
    09:00 +12°C° 0 mm 1 mps 740 mmHg 64%
    10:00 +14°C° 0 mm 1 mps 740 mmHg 57%
    11:00 +14°C° 0 mm 1 mps 740 mmHg 54%
    12:00 +15°C° 0 mm 1 mps 740 mmHg 52%
    13:00 +15°C° 0 mm 2 mps 740 mmHg 50%
    14:00 +15°C° 0 mm 2 mps 740 mmHg 51%
    15:00 +15°C° 0 mm 2 mps 740 mmHg 51%
    16:00 +15°C° 0 mm 2 mps 740 mmHg 52%
    17:00 +13°C° 0 mm 2 mps 740 mmHg 58%
    18:00 +11°C° 0 mm 1 mps 741 mmHg 65%
    19:00 +9°C° 0 mm 1 mps 741 mmHg 71%
    20:00 +9°C° 0 mm 1 mps 742 mmHg 71%
    21:00 +8°C° 0 mm 1 mps 742 mmHg 71%
    22:00 +8°C° 0 mm 1 mps 743 mmHg 70%
    23:00 +6°C° 0 mm 0 mps 743 mmHg 73%

    20 September, Friday

    Time Temperature Precipitation Wind Pressure Humidity
    00:00 +6°C° 0 mm 0 mps 743 mmHg 75%
    01:00 +5°C° 0 mm 0 mps 743 mmHg 78%
    02:00 +5°C° 0 mm 0 mps 743 mmHg 80%
    03:00 +4°C° 0 mm 0 mps 743 mmHg 82%
    04:00 +4°C° 0 mm 0 mps 743 mmHg 85%
    05:00 +5°C° 0 mm 0 mps 743 mmHg 83%
    06:00 +6°C° 0 mm 1 mps 743 mmHg 80%
    07:00 +7°C° 0 mm 1 mps 743 mmHg 78%
    08:00 +9°C° 0 mm 1 mps 743 mmHg 71%
    09:00 +10°C° 0 mm 2 mps 743 mmHg 64%
    10:00 +13°C° 0 mm 2 mps 743 mmHg 57%
    11:00 +13°C° 0 mm 3 mps 742 mmHg 53%
    12:00 +14°C° 0 mm 3 mps 742 mmHg 49%
    13:00 +16°C° 0 mm 3 mps 742 mmHg 45%
    14:00 +16°C° 0 mm 3 mps 741 mmHg 45%
    15:00 +16°C° 0 mm 3 mps 741 mmHg 46%
    16:00 +16°C° 0 mm 3 mps 741 mmHg 47%
    17:00 +13°C° 0 mm 3 mps 741 mmHg 52%
    18:00 +10°C° 0 mm 3 mps 742 mmHg 57%
    19:00 +8°C° 0 mm 3 mps 742 mmHg 62%
    20:00 +8°C° 0 mm 3 mps 742 mmHg 63%
    21:00 +7°C° 0 mm 3 mps 743 mmHg 64%
    22:00 +7°C° 0 mm 3 mps 743 mmHg 65%
    23:00 +7°C° 0 mm 3 mps 743 mmHg 66%
    Show more